Pennock, MN

3:39 AM CST on February 27, 2017 (GMT -0600)
Willmar

Weather History for KBDH - March, 2014

Change the Weather History Date:

Sunday, March 2, 2014

  Actual Average (KBBB) Record (KBBB)
Temperature  
Mean Temperature -8 °F -  
Max Temperature 3 °F 30 °F 52 °F (1992)
Min Temperature -18 °F 14 °F -18 °F (2014)
Degree Days  
Heating Degree Days 72    
Moisture  
Dew Point -17 °F    
Average Humidity 61    
Maximum Humidity 71    
Minimum Humidity 49    
Precipitation  
Precipitation 0.00 in - - ()
Sea Level Pressure  
Sea Level Pressure 30.52 in    
Wind  
Wind Speed 9 mph (NW)    
Max Wind Speed 18 mph    
Max Gust Speed 21 mph    
Visibility 10 miles    
Events      
Averages and records for this station are not official NWS values.
T = Trace of Precipitation, MM = Missing Value Source: NWS Daily Summary

Daily Weather History Graph

Daily Weather History Graph

Search for Another Location

Airport or City:

Trip Planner

Search our weather history database for the weather conditions in past years. The results will help you decide how hot, cold, wet, or windy it might be!

Date:

Astronomy

Mar. 02, 2014 Rise Set
Actual Time 6:56 AM CST 6:09 PM CST
Civil Twilight 6:27 AM CST 6:38 PM CST
Nautical Twilight 5:53 AM CST 7:12 PM CST
Astronomical Twilight 5:19 AM CST 7:47 PM CST
Moon 7:22 AM CST (3/2) 8:13 PM CST (3/2)
Length of Visible Light 12h 11m
Length of Day
11h 12m
Waxing Crescent, 3% of the Moon is Illuminated
Mar 2
Waxing Crescent
Mar 8
First Quarter
Mar 16
Full
Mar 23
Last Quarter
Mar 30
New

Hourly Weather History & Observations

Time (CST) Temp. Windchill Dew Point Humidity Pressure Visibility Wind Dir Wind Speed Gust Speed Precip Events Conditions
12:15 AM -11.2 °F -32.9 °F -25.6 °F 49% 30.54 in 10.0 mi NNW 13.8 mph - N/A   Clear
12:36 AM -11.2 °F -29.0 °F -25.6 °F 49% 30.54 in 10.0 mi NNW 9.2 mph - N/A   Clear
12:55 AM -13.0 °F -27.0 °F -23.8 °F 59% 30.54 in 10.0 mi NNW 5.8 mph - N/A   Clear
1:15 AM -14.8 °F -29.1 °F -23.8 °F 64% 30.54 in 10.0 mi NW 5.8 mph - N/A   Clear
1:36 AM -13.0 °F -27.0 °F -23.8 °F 59% 30.55 in 10.0 mi WNW 5.8 mph - N/A   Clear
1:55 AM -14.8 °F -29.1 °F -25.6 °F 58% 30.56 in 10.0 mi West 5.8 mph - N/A   Clear
2:15 AM -14.8 °F -29.1 °F -23.8 °F 64% 30.56 in 10.0 mi West 5.8 mph - N/A   Clear
2:36 AM -14.8 °F -32.2 °F -23.8 °F 64% 30.55 in 10.0 mi WNW 8.1 mph - N/A   Clear
2:55 AM -13.0 °F -28.6 °F -22.0 °F 64% 30.54 in 10.0 mi WNW 6.9 mph - N/A   Clear
3:15 AM -13.0 °F -27.0 °F -20.2 °F 70% 30.52 in 10.0 mi NW 5.8 mph - N/A   Clear
3:35 AM -13.0 °F -31.3 °F -23.8 °F 59% 30.53 in 10.0 mi NW 9.2 mph - N/A   Clear
3:55 AM -11.2 °F -27.8 °F -23.8 °F 54% 30.53 in 10.0 mi NW 8.1 mph - N/A   Clear
4:16 AM -11.2 °F -27.8 °F -23.8 °F 54% 30.54 in 10.0 mi WNW 8.1 mph - N/A   Clear
4:35 AM -11.2 °F -23.0 °F -23.8 °F 54% 30.54 in 10.0 mi WNW 4.6 mph - N/A   Clear
4:56 AM -14.8 °F -24.8 °F -25.6 °F 58% 30.54 in 10.0 mi West 3.5 mph - N/A   Clear
5:15 AM -14.8 °F -24.8 °F -23.8 °F 64% 30.54 in 10.0 mi West 3.5 mph - N/A   Clear
5:35 AM -14.8 °F -24.8 °F -25.6 °F 58% 30.54 in 10.0 mi West 3.5 mph - N/A   Clear
5:56 AM -16.6 °F -29.3 °F -25.6 °F 64% 30.54 in 10.0 mi West 4.6 mph - N/A   Clear
6:15 AM -16.6 °F -26.8 °F -25.6 °F 64% 30.54 in 10.0 mi West 3.5 mph - N/A   Clear
6:35 AM -18.4 °F -31.4 °F -25.6 °F 70% 30.54 in 10.0 mi West 4.6 mph - N/A   Clear
6:56 AM -18.4 °F -33.4 °F -27.4 °F 63% 30.54 in 10.0 mi West 5.8 mph - N/A   Clear
7:15 AM -16.6 °F -31.3 °F -25.6 °F 64% 30.55 in 10.0 mi West 5.8 mph - N/A   Clear
7:35 AM -16.6 °F -32.9 °F -25.6 °F 64% 30.54 in 10.0 mi West 6.9 mph - N/A   Clear
7:56 AM -16.6 °F -29.3 °F -25.6 °F 64% 30.54 in 10.0 mi WSW 4.6 mph - N/A   Clear
8:15 AM -16.6 °F -29.3 °F -25.6 °F 64% 30.54 in 10.0 mi West 4.6 mph - N/A   Clear
8:35 AM -13.0 °F -30.0 °F -20.2 °F 70% 30.54 in 10.0 mi West 8.1 mph - N/A   Clear
8:55 AM -9.4 °F -26.8 °F -20.2 °F 59% 30.54 in 10.0 mi WNW 9.2 mph - N/A   Clear
9:15 AM -9.4 °F -28.9 °F -18.4 °F 65% 30.54 in 10.0 mi WNW 11.5 mph - N/A   Clear
9:36 AM -7.6 °F -29.1 °F -18.4 °F 59% 30.53 in 10.0 mi WNW 15.0 mph - N/A   Clear
9:55 AM -7.6 °F -30.5 °F -18.4 °F 59% 30.53 in 10.0 mi NW 17.3 mph - N/A   Clear
10:15 AM -5.8 °F -28.8 °F -18.4 °F 55% 30.53 in 10.0 mi NW 18.4 mph - N/A   Clear
10:36 AM -5.8 °F -27.5 °F -16.6 °F 60% 30.53 in 10.0 mi NW 16.1 mph - N/A   Clear
10:55 AM -5.8 °F -26.8 °F -16.6 °F 60% 30.53 in 10.0 mi NW 15.0 mph - N/A   Clear
11:15 AM -4.0 °F -24.5 °F -14.8 °F 60% 30.53 in 10.0 mi WNW 15.0 mph 19.6 mph N/A   Clear
11:36 AM -2.2 °F -21.5 °F -14.8 °F 55% 30.53 in 10.0 mi WNW 13.8 mph - N/A   Clear
11:55 AM -2.2 °F -20.7 °F -14.8 °F 55% 30.54 in 10.0 mi WNW 12.7 mph - N/A   Clear
12:15 PM -0.4 °F -19.9 °F -14.8 °F 51% 30.54 in 10.0 mi NW 15.0 mph - N/A   Clear
12:26 PM -0.4 °F -19.9 °F -14.8 °F 51% 30.54 in 10.0 mi WNW 15.0 mph - N/A   Clear
12:55 PM -0.4 °F -19.9 °F -13.0 °F 55% 30.54 in 10.0 mi NW 15.0 mph - N/A   Clear
1:15 PM 1.4 °F -16.1 °F -13.0 °F 51% 30.53 in 10.0 mi NW 12.7 mph 20.7 mph N/A   Clear
1:35 PM 1.4 °F -16.9 °F -11.2 °F 56% 30.52 in 10.0 mi NW 13.8 mph 19.6 mph N/A   Clear
1:55 PM 1.4 °F -18.2 °F -11.2 °F 56% 30.51 in 10.0 mi NW 16.1 mph - N/A   Clear
2:16 PM 3.2 °F -15.3 °F -9.4 °F 56% 30.50 in 10.0 mi NNW 15.0 mph - N/A   Clear
2:35 PM 3.2 °F -15.3 °F -9.4 °F 56% 30.49 in 10.0 mi NNW 15.0 mph - N/A   Clear
2:55 PM 3.2 °F -15.3 °F -9.4 °F 56% 30.50 in 10.0 mi NW 15.0 mph - N/A   Clear
3:16 PM 3.2 °F -15.3 °F -7.6 °F 61% 30.50 in 10.0 mi NW 15.0 mph - N/A   Clear
3:35 PM 3.2 °F -15.3 °F -9.4 °F 56% 30.51 in 10.0 mi NW 15.0 mph - N/A   Clear
3:55 PM 3.2 °F -13.9 °F -9.4 °F 56% 30.51 in 10.0 mi NW 12.7 mph 17.3 mph N/A   Clear
4:16 PM 3.2 °F -15.3 °F -7.6 °F 61% 30.51 in 10.0 mi NW 15.0 mph - N/A   Clear
4:36 PM 3.2 °F -13.1 °F -7.6 °F 61% 30.50 in 10.0 mi NW 11.5 mph - N/A   Clear
4:55 PM 3.2 °F -10.3 °F -7.6 °F 61% 30.50 in 10.0 mi NW 8.1 mph - N/A   Clear
5:16 PM 3.2 °F -13.1 °F -9.4 °F 56% 30.50 in 10.0 mi NW 11.5 mph - N/A   Clear
5:36 PM 3.2 °F -13.1 °F -9.4 °F 56% 30.50 in 10.0 mi NW 11.5 mph - N/A   Clear
5:55 PM 1.4 °F -12.5 °F -9.4 °F 61% 30.50 in 10.0 mi WNW 8.1 mph - N/A   Clear
6:16 PM 1.4 °F -9.9 °F -9.4 °F 61% 30.49 in 10.0 mi WNW 5.8 mph - N/A   Clear
6:36 PM -0.4 °F -13.4 °F -9.4 °F 66% 30.49 in 10.0 mi NW 6.9 mph - N/A   Clear
6:55 PM -2.2 °F -15.6 °F -11.2 °F 66% 30.49 in 10.0 mi NW 6.9 mph - N/A   Clear
7:16 PM -2.2 °F -15.6 °F -11.2 °F 66% 30.50 in 10.0 mi NW 6.9 mph - N/A   Clear
7:35 PM -4.0 °F -20.2 °F -11.2 °F 71% 30.49 in 10.0 mi NNW 9.2 mph - N/A   Clear
7:55 PM -4.0 °F -17.8 °F -13.0 °F 65% 30.49 in 10.0 mi NNW 6.9 mph - N/A   Clear
8:16 PM -4.0 °F -17.8 °F -11.2 °F 71% 30.50 in 10.0 mi NNW 6.9 mph - N/A   Clear
8:35 PM -4.0 °F -16.3 °F -13.0 °F 65% 30.50 in 10.0 mi NNW 5.8 mph - N/A   Clear
8:55 PM -5.8 °F -16.7 °F -14.8 °F 65% 30.50 in 10.0 mi NNW 4.6 mph - N/A   Clear
9:16 PM -4.0 °F -16.3 °F -13.0 °F 65% 30.50 in 10.0 mi NNW 5.8 mph - N/A   Clear
9:35 PM -5.8 °F -14.5 °F -14.8 °F 65% 30.50 in 10.0 mi North 3.5 mph - N/A   Clear
9:55 PM -5.8 °F - -14.8 °F 65% 30.50 in 10.0 mi Calm Calm - N/A   Clear
10:16 PM -5.8 °F -14.5 °F -14.8 °F 65% 30.50 in 10.0 mi NW 3.5 mph - N/A   Clear
10:35 PM -7.6 °F -16.5 °F -16.6 °F 65% 30.51 in 10.0 mi West 3.5 mph - N/A   Clear
10:55 PM -9.4 °F - -16.6 °F 71% 30.51 in 10.0 mi Calm Calm - N/A   Clear
11:16 PM -9.4 °F - -16.6 °F 71% 30.51 in 10.0 mi Calm Calm - N/A   Clear
11:35 PM -9.4 °F -18.6 °F -16.6 °F 71% 30.51 in 10.0 mi WNW 3.5 mph - N/A   Scattered Clouds
11:55 PM -9.4 °F - -16.6 °F 71% 30.50 in 10.0 mi Calm Calm - N/A   Mostly Cloudy